Torna al catalogo

COSMOS 970 DEB

AttivoLEO
NORAD 14443·DEBRIS·🇷🇺 Russia

Lanciato Dec 21, 1977 da Baikonur Cosmodrome

Loading…

Prossimi Passaggi (prossime 24 ore)

TLE

AggiornatoSource: Space-Track

Epoca: Sep 13, 2026, 19:45 UTC

1 14443U 77121BF  26256.82293322  .00004150  00000-0  70920-3 0  9997
2 14443  65.5743  52.6273 0081930 134.6944 226.0877 14.67867032349119

Traccia COSMOS 970 DEB in tempo reale con AllMySat

Download on the App Store